Total_Precipitation_Accumulation
1.43 1.44 1.57 1.73 1.82 1.90 2.06 2.04 2.00 2.02 2.12 2.15 2.16 2.17 2.09 1.99 2.13 2.37 2.46 2.68 2.81 2.87 2.84 2.91 2.91 3.06 3.07 2.93 3.03 3.18 3.44 3.64 3.20 2.57 2.67 2.83 2.80 2.57 2.40 2.18 2.04 1.98 1.93
1.44 1.51 1.60 1.70 1.76 1.84 1.93 2.05 2.11 2.09 2.19 2.23 2.25 2.20 2.02 2.01 2.13 2.23 2.35 2.57 2.70 2.79 2.93 3.07 2.82 2.97 3.09 3.00 3.01 3.01 3.17 3.49 3.30 3.05 2.97 3.07 3.02 2.76 2.54 2.29 1.93 1.73 1.76
1.64 1.65 1.60 1.64 1.64 1.73 1.87 1.99 2.12 2.18 2.26 2.34 2.34 2.25 2.18 2.22 2.30 2.36 2.45 2.60 2.67 2.72 2.86 2.86 2.80 2.96 2.82 2.91 3.02 2.96 2.97 3.01 3.16 3.03 2.83 2.92 2.86 2.70 2.55 2.25 1.99 1.95 1.68
1.55 1.62 1.66 1.69 1.76 1.87 1.98 2.06 2.14 2.14 2.19 2.18 2.13 2.22 2.29 2.33 2.37 2.40 2.39 2.41 2.45 2.52 2.51 2.42 2.36 2.41 2.46 2.69 2.69 2.69 2.79 2.88 2.97 2.86 2.76 2.81 2.83 2.87 2.73 2.40 2.25 2.10 1.86
1.58 1.57 1.66 1.83 1.88 1.92 1.93 1.95 2.00 2.02 1.94 2.11 2.13 2.23 2.31 2.26 2.13 2.24 2.28 2.22 2.38 2.30 2.15 2.10 2.10 2.20 2.25 2.34 2.21 2.33 2.56 2.63 2.69 2.75 2.78 2.93 2.92 3.06 2.92 2.61 2.48 2.37 2.07
1.57 1.67 1.77 1.82 1.79 1.90 1.94 1.92 1.93 1.97 2.04 2.10 2.12 2.24 2.30 2.12 2.19 2.25 2.30 2.29 2.32 2.23 2.17 2.10 1.97 2.00 2.02 2.04 2.02 2.06 2.24 2.38 2.55 2.72 2.74 2.83 2.89 2.91 2.94 2.79 2.67 2.47 2.16
1.58 1.63 1.84 1.96 1.89 1.98 2.01 2.02 2.00 2.02 2.17 2.22 2.31 2.36 2.28 2.39 2.37 2.20 2.24 2.19 2.20 2.22 2.25 2.22 1.91 1.73 1.93 1.90 2.03 1.98 1.92 1.99 2.11 2.27 2.35 2.46 2.71 2.86 3.00 2.91 2.93 2.77 2.42
1.66 1.79 2.09 2.27 2.13 2.14 2.17 2.18 2.24 2.34 2.37 2.42 2.44 2.35 2.31 2.41 2.42 2.09 2.03 1.95 2.00 2.08 2.12 2.17 2.18 2.08 2.10 2.16 2.20 2.13 1.99 1.94 2.05 2.02 2.01 2.22 2.61 2.96 3.05 3.00 3.09 2.93 2.55
1.86 2.03 2.31 2.55 2.65 2.60 2.43 2.50 2.59 2.59 2.54 2.59 2.64 2.62 2.49 2.53 2.42 2.04 1.92 1.80 1.90 1.96 2.01 2.01 2.04 1.95 2.03 1.96 1.92 1.88 1.84 1.77 1.77 1.78 1.77 1.89 2.20 2.61 2.84 2.89 3.00 2.96 2.67
2.03 2.06 2.29 2.57 2.69 2.65 2.61 2.79 2.89 2.78 2.68 2.72 2.61 2.48 2.36 2.37 2.35 2.01 1.81 1.69 1.80 1.89 1.98 1.95 1.94 1.84 1.83 1.72 1.61 1.62 1.56 1.59 1.71 1.72 1.67 1.65 1.76 2.09 2.47 2.46 2.55 2.72 2.48
2.16 2.17 2.29 2.53 2.83 2.78 2.83 2.90 2.97 2.96 2.96 2.95 2.84 2.69 2.48 2.40 2.42 2.12 1.90 1.71 1.76 1.81 1.73 1.71 1.72 1.73 1.53 1.47 1.44 1.42 1.44 1.49 1.66 1.69 1.67 1.69 1.77 1.88 2.01 2.11 2.25 2.37 2.36
2.24 2.23 2.30 2.57 2.69 2.72 2.88 2.95 3.07 3.19 3.16 3.13 3.10 2.82 2.70 2.61 2.34 2.06 1.89 1.83 1.87 1.88 1.80 1.75 1.76 1.68 1.45 1.36 1.23 1.18 1.26 1.26 1.29 1.43 1.47 1.49 1.57 1.65 1.77 1.96 2.17 2.28 2.31
2.02 2.05 2.18 2.35 2.47 2.63 2.74 2.69 2.78 2.92 2.87 2.86 2.83 2.69 2.72 2.82 2.63 2.19 1.89 1.80 1.84 1.86 1.94 2.02 1.84 1.68 1.55 1.42 1.37 1.31 1.22 1.14 1.22 1.30 1.34 1.33 1.42 1.55 1.75 1.96 2.17 2.42 2.41
1.92 1.92 2.06 2.30 2.44 2.53 2.59 2.56 2.63 2.67 2.72 2.76 2.75 2.66 2.66 2.79 2.76 2.43 2.09 1.88 1.79 1.72 1.72 1.73 1.63 1.58 1.51 1.38 1.33 1.24 1.10 1.12 1.19 1.20 1.28 1.36 1.48 1.65 1.75 1.78 1.91 2.17 2.37
2.05 2.04 2.17 2.27 2.35 2.52 2.59 2.61 2.63 2.60 2.58 2.58 2.55 2.47 2.48 2.58 2.63 2.45 2.15 1.94 1.84 1.79 1.73 1.69 1.65 1.66 1.56 1.47 1.39 1.35 1.36 1.37 1.31 1.25 1.32 1.43 1.49 1.57 1.67 1.75 1.85 1.92 1.96
2.24 2.20 2.19 2.16 2.24 2.24 2.25 2.22 2.21 2.16 2.16 2.13 2.10 2.02 1.98 2.15 2.17 1.90 1.75 1.77 1.77 1.75 1.63 1.60 1.66 1.68 1.63 1.57 1.53 1.47 1.47 1.49 1.43 1.41 1.44 1.51 1.57 1.61 1.69 1.84 1.99 2.02 1.92
2.33 2.19 2.09 2.02 2.02 2.03 2.07 2.12 2.17 2.09 2.03 1.95 1.85 1.71 1.60 1.81 1.85 1.69 1.60 1.58 1.54 1.51 1.43 1.47 1.53 1.61 1.67 1.60 1.48 1.41 1.39 1.44 1.54 1.56 1.53 1.56 1.63 1.69 1.77 1.88 2.04 2.19 2.14
2.35 2.23 2.04 1.95 1.94 1.93 2.06 2.12 2.11 2.11 2.07 1.86 1.71 1.63 1.48 1.53 1.61 1.57 1.48 1.36 1.32 1.30 1.29 1.41 1.49 1.56 1.65 1.62 1.51 1.48 1.52 1.56 1.56 1.58 1.60 1.62 1.69 1.76 1.81 1.88 1.98 2.12 2.16
2.31 2.21 2.08 2.04 2.05 1.96 1.92 1.98 1.98 1.98 2.03 1.94 1.75 1.71 1.70 1.65 1.69 1.64 1.47 1.27 1.30 1.31 1.33 1.38 1.43 1.51 1.55 1.56 1.57 1.62 1.64 1.68 1.63 1.63 1.69 1.75 1.78 1.87 1.86 1.91 2.04 2.19 2.21
1.98 1.99 1.95 1.99 1.99 1.93 1.93 1.96 2.02 2.07 2.11 2.02 1.89 1.79 1.69 1.67 1.66 1.65 1.51 1.40 1.39 1.35 1.34 1.40 1.48 1.53 1.58 1.61 1.72 1.81 1.82 1.85 1.88 1.84 1.87 1.92 1.88 1.90 1.91 1.93 2.03 2.07 2.08
1.75 1.68 1.64 1.61 1.67 1.76 1.83 1.92 2.04 2.11 2.16 2.07 1.86 1.71 1.62 1.46 1.48 1.47 1.49 1.55 1.54 1.56 1.58 1.58 1.63 1.69 1.74 1.81 1.90 1.98 2.01 2.00 2.02 1.98 1.96 2.03 2.04 2.05 2.05 1.99 1.98 2.08 2.09
1.81 1.63 1.47 1.42 1.47 1.60 1.81 1.96 2.04 1.99 1.94 1.89 1.80 1.72 1.71 1.48 1.39 1.39 1.44 1.47 1.50 1.54 1.56 1.57 1.57 1.64 1.70 1.76 1.82 1.87 1.91 1.91 1.96 1.99 1.96 1.96 1.98 1.97 2.02 2.01 1.96 2.03 2.12
1.65 1.46 1.30 1.28 1.34 1.50 1.74 2.06 2.07 1.85 1.73 1.70 1.75 1.73 1.67 1.59 1.48 1.42 1.44 1.44 1.42 1.40 1.41 1.49 1.52 1.57 1.63 1.65 1.66 1.72 1.74 1.72 1.72 1.81 1.90 1.87 1.90 1.93 1.96 2.01 2.01 2.03 2.10
1.53 1.39 1.28 1.27 1.32 1.45 1.71 2.01 1.94 1.77 1.66 1.67 1.70 1.70 1.66 1.62 1.54 1.48 1.47 1.48 1.46 1.40 1.38 1.43 1.47 1.49 1.53 1.58 1.57 1.52 1.50 1.46 1.45 1.56 1.73 1.85 1.89 1.95 1.93 1.96 2.02 2.01 2.09
1.45 1.42 1.35 1.37 1.42 1.58 1.84 2.00 1.91 1.79 1.72 1.68 1.68 1.73 1.73 1.67 1.63 1.62 1.63 1.66 1.65 1.61 1.53 1.44 1.42 1.38 1.35 1.38 1.45 1.44 1.48 1.35 1.27 1.30 1.40 1.55 1.62 1.74 1.82 1.87 2.01 2.04 2.06
1.44 1.45 1.44 1.48 1.55 1.68 1.81 1.85 1.81 1.77 1.80 1.76 1.71 1.73 1.79 1.80 1.80 1.82 1.82 1.76 1.69 1.62 1.50 1.40 1.33 1.31 1.27 1.21 1.19 1.21 1.22 1.17 1.14 1.19 1.23 1.29 1.40 1.51 1.63 1.71 1.76 1.85 1.87